This is the latest recevied weather packets stored in our database for station/object OK1UZT-14. If no packets are shown the sender has not sent any weather packets the latest 10 day(s).
| Time | Temp. | Humidity | Pressure | Rain* | Wind** | Luminosity | Snow |
|---|---|---|---|---|---|---|---|
| 1788198017 | 22.78° C | 59% | 1014.7 hPa | - | - | - | - |
| 1788197417 | 22.78° C | 58% | 1014.6 hPa | - | - | - | - |
| 1788196817 | 23.33° C | 59% | 1014.4 hPa | - | - | - | - |
| 1788196217 | 23.33° C | 58% | 1014.3 hPa | - | - | - | - |
| 1788195617 | 23.89° C | 58% | 1014.2 hPa | - | - | - | - |
| 1788195017 | 23.89° C | 59% | 1014.2 hPa | - | - | - | - |
| 1788194417 | 23.89° C | 58% | 1014.2 hPa | - | - | - | - |
| 1788193817 | 24.44° C | 57% | 1014.3 hPa | - | - | - | - |
| 1788193217 | 24.44° C | 56% | 1014.2 hPa | - | - | - | - |
| 1788192617 | 24.44° C | 56% | 1014.2 hPa | - | - | - | - |
| 1788192017 | 25° C | 55% | 1014.2 hPa | - | - | - | - |
| 1788191417 | 25° C | 55% | 1014.2 hPa | - | - | - | - |
| 1788190217 | 25° C | 54% | 1014.3 hPa | - | - | - | - |
| 1788189617 | 25.56° C | 54% | 1014.2 hPa | - | - | - | - |
| 1788189017 | 25.56° C | 54% | 1014.2 hPa | - | - | - | - |
| 1788188417 | 25.56° C | 54% | 1014.2 hPa | - | - | - | - |
| 1788187217 | 25.56° C | 54% | 1014.3 hPa | - | - | - | - |
| 1788186617 | 25.56° C | 53% | 1014.3 hPa | - | - | - | - |
| 1788186017 | 25.56° C | 52% | 1014.3 hPa | - | - | - | - |
| 1788185417 | 25.56° C | 51% | 1014.3 hPa | - | - | - | - |
| 1788184817 | 26.11° C | 52% | 1014.3 hPa | - | - | - | - |
| 1788184217 | 25.56° C | 52% | 1014.3 hPa | - | - | - | - |
| 1788183617 | 25.56° C | 52% | 1014.4 hPa | - | - | - | - |
| 1788183017 | 25.56° C | 53% | 1014.5 hPa | - | - | - | - |
| 1788182417 | 25° C | 55% | 1014.4 hPa | - | - | - | - |
* Rain since midnight (hover to see other rain measurements)
** Current wind speed in m/s (hover to see current wind gust speed)